C/2024 G6 ( ATLAS )

Japanese version
Home page
Updated on September 4, 2024

---------------------------------------------------------------------

* Profile

Discovery Date April 10, 2024
Magnitude 19.1 mag
Discoverer Asteroid Terrestrial-Impact Last Alert System (ATLAS) search program

* Pictures

* Orbital Elements

Epoch 2024 Oct. 17.0 TT = JDT 2460600.5
T 2026 Feb. 20.97237 TT                                 Rudenko
q   6.4290915            (2000.0)            P               Q
z  -0.0003672      Peri.   23.46153     -0.49015369     -0.30960345
 +/-0.0000332      Node   250.95152     -0.87162756     +0.16998147
e   1.0023609      Incl.  120.45831     -0.00384024     +0.93554904
>From 72 observations 2024 Apr. 10-Aug. 31, mean residual 0".6.

* Magnitudes Graph

        m1 = 5.5 + 5 log d + 10.0 log r

---------------------------------------------------------------------

The orbital elements are published on M.P.E.C. 2024-R10.
The magnitudes graphs are made with Comet for Windows.

---------------------------------------------------------------------

Copyright(C) Seiichi Yoshida (comet@aerith.net). All rights reserved.